Theta_e
291 292 292 292 294 295 293 293 295 296 295 294 295 294 292 292 294 294 298 298 297 296 296 299 298 299 303 305 308 311 313 315 317 318 317 318 320 326
290 290 291 292 293 292 291 290 290 291 294 294 294 292 292 293 293 295 296 294 294 295 295 298 300 299 300 304 306 309 310 312 314 316 318 319 320 320
290 290 290 291 291 290 289 289 289 290 294 292 292 292 292 292 293 292 292 292 293 293 294 295 296 297 300 302 302 304 308 311 313 314 316 318 320 320
289 289 289 289 289 288 288 289 289 290 291 293 292 291 292 291 292 292 291 292 292 292 292 293 294 296 297 299 300 302 303 303 307 311 312 315 318 320
289 289 288 288 288 288 288 289 289 290 290 290 291 291 291 291 291 291 291 291 291 291 291 291 292 294 295 297 299 300 301 303 307 308 308 312 313 316
288 288 288 287 287 287 288 288 289 290 289 290 290 291 291 290 290 291 292 291 291 291 292 292 293 294 295 296 298 299 301 301 304 308 309 310 312 314
288 287 287 287 287 287 288 288 288 289 289 290 291 291 290 290 290 290 291 290 290 291 292 293 293 294 295 296 298 297 298 299 302 303 308 310 311 312
287 286 286 286 287 287 287 287 287 288 289 290 290 290 289 288 289 289 289 291 292 290 291 292 292 294 294 295 296 298 298 298 299 301 302 304 309 310
286 286 286 286 286 287 286 286 287 288 289 288 288 288 288 288 288 288 289 290 292 290 290 291 292 293 293 294 295 296 296 298 300 300 301 304 306 306
286 286 286 286 286 286 286 287 289 287 286 286 286 286 286 287 287 288 288 289 289 290 291 293 292 293 293 293 294 295 297 298 300 301 302 303 304 304
285 285 286 286 285 285 287 287 286 286 285 284 285 286 286 286 286 286 287 289 290 290 290 291 291 292 292 292 292 293 297 299 301 302 302 302 303 303
285 286 285 285 285 286 286 285 285 284 284 285 285 284 284 284 284 285 286 288 289 289 288 290 290 290 292 291 294 294 294 295 297 298 300 301 302 304
286 285 285 285 286 284 284 284 283 284 284 284 283 283 283 284 284 285 284 285 286 288 286 288 289 289 291 291 290 291 293 294 294 296 300 303 303 306
285 285 285 285 283 283 283 283 283 283 283 282 283 283 283 283 283 284 283 284 284 285 285 287 287 288 289 289 290 291 293 292 295 299 302 303 302 301
284 285 285 283 282 281 282 282 282 282 282 282 283 283 282 282 283 283 284 284 285 286 287 287 285 285 285 287 288 292 292 291 294 293 293 295 296 297
284 284 282 282 281 281 281 281 281 281 282 282 282 282 282 282 283 283 284 285 287 288 286 284 283 284 285 285 288 292 289 290 290 291 291 291 292 292
284 282 281 281 281 281 281 281 281 281 281 281 281 281 282 282 283 283 285 287 286 286 285 284 283 283 285 287 290 290 289 289 290 290 290 290 289 290
281 281 281 280 281 280 280 280 280 280 280 280 280 281 282 282 283 286 285 285 285 284 282 281 281 282 286 285 285 287 287 288 288 289 290 290 290 290
280 280 280 280 280 280 280 280 280 280 279 280 280 281 281 283 285 286 286 285 285 283 282 280 281 284 287 286 283 283 286 287 287 288 288 288 288 290
279 280 280 279 279 279 279 279 279 279 279 280 280 281 282 284 284 285 284 285 285 283 283 281 279 279 283 284 283 283 284 286 285 285 285 284 285 289
279 279 279 279 279 279 279 279 279 279 280 280 280 282 283 283 283 283 283 283 283 283 283 283 279 279 279 281 284 283 283 284 285 285 285 285 285 285
279 279 278 278 278 278 278 278 278 279 279 280 281 282 283 282 282 282 283 283 284 284 283 283 282 283 284 284 283 283 283 283 284 284 285 285 286 286
278 278 278 278 278 278 278 278 278 279 280 280 282 282 282 282 282 282 283 284 285 285 284 285 284 283 284 284 284 284 284 284 285 285 285 286 285 284
Wind_Speed
20 20 22 23 22 22 25 25 16 16 17 33 31 30 31 33 35 36 36 36 38 45 48 41 46 43 40 39 38 39 39 41 35 34 32 43 34 42
21 23 23 25 24 25 26 27 27 21 16 33 34 40 36 36 34 36 37 40 42 38 41 39 36 41 42 40 37 35 37 36 35 34 34 36 37 33
23 24 26 26 26 27 27 28 27 27 14 31 34 39 42 38 37 39 38 39 38 36 38 40 40 42 42 39 39 38 34 32 34 34 33 37 33 38
26 26 27 26 28 29 28 28 28 31 26 18 35 36 39 40 38 38 38 37 39 37 39 41 41 40 39 39 38 37 37 38 34 31 31 33 31 33
27 27 28 28 29 28 29 30 29 30 29 29 30 34 37 37 37 36 37 37 36 39 39 38 39 37 41 40 38 37 36 34 34 36 32 31 30 31
28 27 29 28 29 31 32 32 31 30 32 31 29 30 32 36 34 32 30 33 33 35 35 37 37 39 39 38 36 36 34 30 29 30 31 31 31 33
28 29 28 28 30 31 31 32 32 33 30 29 26 26 26 29 26 33 28 34 36 35 36 34 33 33 32 36 31 37 34 30 28 28 25 26 29 31
30 30 30 30 29 33 34 37 36 35 32 31 24 16 30 32 33 31 30 14 17 36 31 33 34 31 33 36 35 34 35 36 35 34 32 31 27 25
29 31 32 30 32 33 37 38 37 39 33 37 32 31 33 35 36 36 34 30 17 36 31 24 36 30 32 33 33 38 40 39 36 34 33 30 28 27
29 29 32 34 33 36 38 37 35 35 35 35 34 37 37 40 38 36 36 38 37 35 28 14 25 28 31 32 34 36 37 38 35 34 33 30 29 30
30 30 32 35 36 39 41 34 40 37 38 39 38 42 42 42 40 35 27 15 16 19 25 22 25 26 23 28 33 34 32 32 30 28 28 30 30 29
32 32 33 35 39 40 41 38 34 35 37 39 37 36 35 34 34 31 28 13 15 15 21 13 20 21 11 21 13 17 19 19 20 24 26 27 28 24
31 32 32 37 39 45 43 35 33 42 38 35 33 33 32 31 30 29 29 28 22 14 29 27 18 19 10 11 23 25 22 24 25 30 25 23 19 31
33 34 36 38 45 42 38 34 39 38 31 31 30 29 30 31 32 34 36 36 35 36 38 33 20 13 9 10 11 17 15 21 17 12 23 24 25 27
34 38 38 41 38 34 32 36 34 29 30 28 27 29 31 36 37 34 33 33 34 33 29 18 11 16 17 10 9 9 5 9 8 26 26 25 25 27
34 30 37 34 31 32 32 31 29 30 31 29 28 33 35 33 31 31 28 28 20 14 5 9 10 13 16 18 17 6 3 2 6 22 28 29 28 27
38 32 28 28 29 29 29 30 31 31 29 30 31 31 31 30 28 29 24 15 8 6 9 9 9 11 14 4 1 4 8 7 12 23 29 25 24 29
31 25 25 26 26 28 29 31 32 32 31 32 31 29 27 26 25 19 15 10 5 8 9 12 13 8 4 15 21 9 11 11 16 22 23 23 20 26
24 24 24 25 28 29 30 31 31 33 34 30 29 28 27 23 21 16 14 12 8 10 11 12 12 5 5 5 6 23 10 14 20 19 18 17 16 19
23 24 25 27 29 30 31 31 32 32 31 29 29 26 24 20 18 15 14 11 8 9 8 9 12 11 5 4 3 15 17 15 19 19 21 25 25 25
25 26 27 28 30 31 32 31 31 30 32 29 25 24 21 19 16 15 14 14 13 9 6 7 10 5 4 4 7 9 21 19 18 22 20 18 9 7
26 27 28 30 31 32 32 31 30 30 28 26 24 23 20 18 15 15 14 12 11 9 6 6 8 7 9 8 8 10 15 20 24 21 18 10 5 5
27 28 30 32 32 32 31 31 30 29 27 25 23 22 19 16 14 14 14 12 10 8 8 7 10 11 12 12 10 9 14 14 14 17 19 15 11 15
Wind_Direction
313 310 308 306 299 302 299 300 297 303 300 302 305 306 309 303 295 301 293 297 301 299 296 291 293 295 296 296 292 290 288 285 280 266 268 277 282 236
312 308 305 305 302 301 301 299 295 290 292 293 301 304 303 302 299 299 295 297 295 295 295 292 294 295 294 292 294 293 288 288 285 278 266 261 261 264
310 308 307 305 302 302 301 298 294 293 290 291 294 299 301 301 300 297 297 294 292 292 295 292 293 293 292 291 293 292 290 288 282 276 271 263 255 252
310 309 308 308 305 303 300 299 296 295 291 293 294 299 296 301 300 301 300 297 295 295 294 291 289 288 289 289 290 290 292 288 287 281 275 268 264 260
310 310 309 309 306 305 304 303 299 300 299 297 294 296 296 299 300 300 296 293 294 293 292 288 286 284 286 284 285 286 288 285 283 281 280 278 269 264
310 309 309 308 307 308 306 304 306 306 300 295 292 294 298 301 301 298 297 296 296 293 290 288 286 284 281 280 281 285 283 289 290 277 277 273 270 264
310 310 309 307 303 302 305 307 305 300 298 295 295 301 303 305 301 299 298 300 298 293 291 291 290 286 288 280 278 287 278 282 284 288 283 272 263 263
313 312 310 309 309 311 307 307 302 300 296 297 302 303 299 296 299 301 297 294 294 290 290 290 290 286 285 283 283 282 281 279 275 274 276 270 264 262
312 312 312 312 316 310 308 306 302 303 302 303 302 300 299 298 299 295 291 289 288 296 295 287 284 282 282 281 278 279 277 275 271 269 271 265 266 266
312 313 312 313 311 313 310 307 301 307 309 305 300 296 293 292 292 292 296 291 289 286 286 279 292 289 288 282 282 282 277 273 267 265 265 262 267 268
316 315 312 310 314 314 314 317 313 313 311 307 302 301 300 298 298 297 292 292 292 289 296 282 293 287 291 291 285 283 277 267 264 265 265 263 262 265
316 314 314 314 314 317 318 316 313 312 311 309 308 306 304 301 299 293 290 291 292 291 296 289 294 292 293 285 295 316 318 305 283 274 270 262 254 262
314 314 314 316 316 319 317 315 311 312 313 310 308 305 304 302 303 298 294 286 289 285 289 292 293 286 273 291 291 299 297 298 292 287 270 246 228 164
313 312 314 316 321 319 317 314 317 316 310 308 306 305 307 306 304 301 297 290 283 279 283 279 278 273 278 282 287 297 298 305 296 106 107 125 136 129
315 313 319 320 320 319 317 320 319 315 311 308 309 308 307 304 302 300 296 291 286 282 279 270 265 280 271 269 275 285 310 332 104 101 95 96 106 114
315 322 321 319 320 318 320 319 317 315 313 310 308 306 306 306 305 303 299 297 295 303 291 296 294 294 275 254 247 252 207 312 79 101 97 88 94 100
328 324 321 325 321 321 321 320 319 318 317 316 314 311 311 310 309 308 303 324 326 339 333 335 329 323 27 331 229 126 107 86 101 106 98 87 82 98
327 323 325 320 319 321 321 318 317 319 318 317 314 314 314 315 313 331 344 344 348 354 346 342 333 313 231 53 43 83 83 86 93 96 102 99 88 97
327 323 317 320 319 318 316 315 315 317 317 316 316 317 316 318 333 343 347 351 349 348 350 350 349 322 54 66 21 38 84 84 92 80 87 91 92 96
322 319 319 320 319 316 315 314 315 317 319 318 320 319 320 333 335 341 342 343 346 346 353 12 19 17 23 30 64 42 63 84 95 93 91 87 86 97
320 320 320 319 316 314 312 314 315 315 318 318 319 320 326 331 332 335 337 343 348 352 357 6 2 357 53 64 78 54 53 73 92 104 104 93 85 90
320 321 321 317 314 313 315 317 317 318 319 321 322 323 331 331 333 333 334 337 342 343 345 9 27 49 63 88 89 88 81 88 84 86 83 96 140 137
322 321 317 316 314 315 317 318 318 317 318 318 321 326 323 323 325 327 330 340 348 3 12 35 55 69 77 87 93 99 98 95 94 82 59 58 102 123